UAE17 OMDB-EGCC

Flight info

Callsign UAE17
Flight time N/A
Altitude 38000
Route ANVIX R401 GIDIS G783 RIGIL M628 PEKEM DCT MEDPO DCT ITRUX Y511 PMA Z712 WEJ L677 CVO L617 TANSA UL613 KOR DCT DIMIS DCT VAKSU DCT SPL DCT ZDA DCT PEVAL DCT LAMPO DCT GUNGO DCT SAFFA DCT ELMUR DCT RIPUS L613 HOC DCT LUL DCT RLP DCT ROTSI DCT KOTUN DCT AMAXA DCT VESAN DCT RATUK DCT SOVAT L613 SANDY UN57 WELIN T420 ELVOS
Aircraft A388/J-SADE2E3FGHIJ3J4J5M1RWXY/LB1D1

Departure

Time 2026-04-25 08:02
Airport Dubai International Airport (OMDB)

Arrival

Time N/A
Airport Manchester Airport (EGCC)
Time Latitude Longitude Altitude Speed Heading
2026-04-25 07:30 25.24562 55.36962 26 ft 0 kts 167°
2026-04-25 07:49 25.24570 55.36960 31 ft 4 kts 167°
2026-04-25 07:49 25.24597 55.36953 28 ft 4 kts 167°
2026-04-25 07:49 25.24617 55.36948 31 ft 4 kts 158°
2026-04-25 07:50 25.24638 55.36932 31 ft 4 kts 118°
2026-04-25 07:50 25.24647 55.36905 27 ft 4 kts 97°
2026-04-25 07:50 25.24644 55.36879 29 ft 4 kts 47°
2026-04-25 07:50 25.24625 55.36863 28 ft 4 kts 31°
2026-04-25 07:51 25.24604 55.36849 28 ft 1 kts 31°
2026-04-25 07:54 25.24618 55.36859 26 ft 4 kts 33°
2026-04-25 07:54 25.24654 55.36886 26 ft 8 kts 37°
2026-04-25 07:54 25.24684 55.36937 26 ft 8 kts 86°
2026-04-25 07:55 25.24663 55.37004 26 ft 11 kts 120°
2026-04-25 07:55 25.24620 55.37084 26 ft 13 kts 121°
2026-04-25 07:55 25.24567 55.37178 29 ft 15 kts 122°
2026-04-25 07:55 25.24507 55.37284 27 ft 17 kts 122°
2026-04-25 07:56 25.24447 55.37402 29 ft 18 kts 109°
2026-04-25 07:56 25.24425 55.37543 28 ft 19 kts 96°
2026-04-25 07:56 25.24384 55.37680 26 ft 14 kts 119°
2026-04-25 07:56 25.24343 55.37782 26 ft 14 kts 90°
2026-04-25 07:57 25.24346 55.37805 27 ft 2 kts 72°
2026-04-25 07:57 25.24357 55.37827 27 ft 4 kts 50°
2026-04-25 07:57 25.24383 55.37860 27 ft 7 kts 42°
2026-04-25 07:57 25.24422 55.37892 29 ft 8 kts 35°
2026-04-25 07:58 25.24469 55.37929 30 ft 9 kts 35°
2026-04-25 07:58 25.24529 55.37975 29 ft 12 kts 34°
2026-04-25 07:58 25.24609 55.38032 28 ft 14 kts 32°
2026-04-25 07:58 25.24622 55.38041 28 ft 3 kts 32°
2026-04-25 07:59 25.24632 55.38048 28 ft 1 kts 32°
2026-04-25 07:59 25.24636 55.38051 28 ft 0 kts 32°
2026-04-25 08:00 25.24645 55.38057 29 ft 3 kts 32°
2026-04-25 08:00 25.24669 55.38074 29 ft 5 kts 32°
2026-04-25 08:01 25.24702 55.38096 30 ft 6 kts 26°
2026-04-25 08:01 25.24746 55.38104 30 ft 7 kts 343°
2026-04-25 08:01 25.24790 55.38060 30 ft 11 kts 304°
2026-04-25 08:01 25.24920 55.37832 31 ft 69 kts 300°
2026-04-25 08:02 25.25287 55.37173 31 ft 127 kts 302°
2026-04-25 08:02 25.25804 55.36222 33 ft 163 kts 300°
2026-04-25 08:02 25.26381 55.35141 420 ft 161 kts 301°
2026-04-25 08:02 25.26992 55.34053 670 ft 174 kts 302°
2026-04-25 08:03 25.27651 55.32884 855 ft 184 kts 302°
2026-04-25 08:03 25.28341 55.31688 1218 ft 185 kts 302°
2026-04-25 08:03 25.29008 55.30470 1593 ft 185 kts 297°
2026-04-25 08:03 25.29284 55.29079 1928 ft 190 kts 265°
2026-04-25 08:04 25.28855 55.27707 2263 ft 192 kts 242°
2026-04-25 08:04 25.28220 55.26366 2398 ft 202 kts 245°
2026-04-25 08:04 25.27612 55.24948 2675 ft 203 kts 246°
2026-04-25 08:04 25.27014 55.23528 2913 ft 205 kts 246°
2026-04-25 08:05 25.26414 55.22103 3161 ft 206 kts 246°
2026-04-25 08:05 25.25808 55.20654 3371 ft 210 kts 246°
2026-04-25 08:05 25.25177 55.19159 3446 ft 219 kts 245°
2026-04-25 08:05 25.24382 55.17688 3486 ft 234 kts 225°
2026-04-25 08:06 25.22946 55.16763 3791 ft 248 kts 194°
2026-04-25 08:06 25.21221 55.16690 4333 ft 251 kts 176°
2026-04-25 08:06 25.19470 55.16978 4828 ft 258 kts 160°
2026-04-25 08:06 25.17980 55.18060 5381 ft 260 kts 131°
2026-04-25 08:07 25.17012 55.19760 5851 ft 268 kts 117°
2026-04-25 08:07 25.16158 55.21671 6061 ft 286 kts 115°
2026-04-25 08:07 25.15589 55.22984 6410 ft 287 kts 116°
2026-04-25 08:07 25.14700 55.24972 6947 ft 290 kts 117°
2026-04-25 08:08 25.13771 55.26958 7451 ft 293 kts 118°
2026-04-25 08:08 25.12814 55.28953 8002 ft 295 kts 118°
2026-04-25 08:08 25.11850 55.30957 8503 ft 298 kts 118°
2026-04-25 08:08 25.10873 55.32982 9026 ft 300 kts 118°
2026-04-25 08:09 25.09981 55.35083 9491 ft 303 kts 115°
2026-04-25 08:09 25.09112 55.37206 10030 ft 305 kts 115°
2026-04-25 08:09 25.08229 55.39336 10547 ft 307 kts 115°
2026-04-25 08:09 25.07346 55.41481 11120 ft 308 kts 115°
2026-04-25 08:10 25.06463 55.43672 11410 ft 320 kts 114°
2026-04-25 08:10 25.05579 55.45980 11558 ft 335 kts 113°
2026-04-25 08:10 25.04662 55.48401 11706 ft 349 kts 113°
2026-04-25 08:10 25.03705 55.50913 11970 ft 359 kts 113°
2026-04-25 08:11 25.02734 55.53449 12536 ft 360 kts 113°
2026-04-25 08:11 25.01683 55.55970 13007 ft 363 kts 120°
2026-04-25 08:11 25.00388 55.58364 13497 ft 365 kts 122°
2026-04-25 08:11 24.99072 55.60776 13997 ft 368 kts 122°
2026-04-25 08:12 24.97756 55.63207 14477 ft 371 kts 121°
2026-04-25 08:12 24.96432 55.65663 14918 ft 375 kts 122°
2026-04-25 08:12 24.95096 55.68137 15010 ft 376 kts 122°
2026-04-25 08:12 24.93712 55.70577 14996 ft 374 kts 127°
2026-04-25 08:13 24.92172 55.72878 15002 ft 374 kts 127°
2026-04-25 08:13 24.90629 55.75197 15156 ft 376 kts 127°
2026-04-25 08:13 24.89088 55.77524 15638 ft 377 kts 127°
2026-04-25 08:14 24.85975 55.82216 16549 ft 382 kts 127°
2026-04-25 08:14 24.84405 55.84586 16996 ft 384 kts 127°
2026-04-25 08:14 24.82818 55.86965 17443 ft 387 kts 128°
2026-04-25 08:14 24.81206 55.89346 17845 ft 389 kts 128°
2026-04-25 08:15 24.79392 55.91550 18229 ft 390 kts 142°
2026-04-25 08:15 24.77080 55.93092 18614 ft 390 kts 159°
2026-04-25 08:15 24.74463 55.93818 18995 ft 389 kts 176°
2026-04-25 08:15 24.71791 55.93825 19359 ft 390 kts 184°
2026-04-25 08:16 24.69034 55.93685 19727 ft 392 kts 184°
2026-04-25 08:16 24.66337 55.93551 20094 ft 394 kts 184°
2026-04-25 08:16 24.63588 55.93437 20469 ft 396 kts 185°
2026-04-25 08:16 24.60884 55.92899 20784 ft 396 kts 200°
2026-04-25 08:17 24.58396 55.91629 21159 ft 395 kts 214°
2026-04-25 08:17 24.56246 55.89749 21507 ft 395 kts 223°
2026-04-25 08:17 24.54188 55.87737 21847 ft 397 kts 222°
2026-04-25 08:17 24.52108 55.85725 22176 ft 400 kts 222°
2026-04-25 08:18 24.50016 55.83713 22533 ft 401 kts 222°
2026-04-25 08:18 24.47916 55.81695 22862 ft 402 kts 222°
2026-04-25 08:18 24.45803 55.79666 23172 ft 404 kts 222°
2026-04-25 08:18 24.43679 55.77624 23492 ft 406 kts 222°
2026-04-25 08:19 24.41554 55.75583 23816 ft 407 kts 222°
2026-04-25 08:19 24.39417 55.73531 24112 ft 409 kts 222°
2026-04-25 08:19 24.37270 55.71469 24429 ft 411 kts 222°
2026-04-25 08:19 24.35115 55.69401 24711 ft 413 kts 222°
2026-04-25 08:20 24.32954 55.67315 24987 ft 414 kts 225°
2026-04-25 08:20 24.30916 55.65077 25252 ft 416 kts 226°
2026-04-25 08:20 24.28862 55.62838 25559 ft 418 kts 226°
2026-04-25 08:20 24.26796 55.60589 25848 ft 419 kts 226°
2026-04-25 08:21 24.24729 55.58327 26145 ft 421 kts 226°
2026-04-25 08:21 24.22654 55.56050 26432 ft 423 kts 226°
2026-04-25 08:21 24.20573 55.53760 26723 ft 425 kts 226°
2026-04-25 08:21 24.18481 55.51461 27029 ft 427 kts 226°
2026-04-25 08:22 24.16381 55.49155 27345 ft 429 kts 226°
2026-04-25 08:22 24.14272 55.46837 27683 ft 431 kts 226°
2026-04-25 08:22 24.12148 55.44505 28022 ft 433 kts 226°
2026-04-25 08:22 24.10017 55.42166 28358 ft 435 kts 226°
2026-04-25 08:23 24.07870 55.39813 28707 ft 438 kts 226°
2026-04-25 08:23 24.05714 55.37451 29033 ft 440 kts 226°
2026-04-25 08:23 24.03550 55.35079 29398 ft 441 kts 226°
2026-04-25 08:23 24.01375 55.32696 29717 ft 444 kts 226°
2026-04-25 08:24 23.99184 55.30302 30080 ft 446 kts 226°
2026-04-25 08:24 23.96983 55.27895 30358 ft 450 kts 226°
2026-04-25 08:24 23.94761 55.25464 30631 ft 454 kts 226°
2026-04-25 08:24 23.92528 55.23025 30984 ft 455 kts 226°
2026-04-25 08:25 23.90280 55.20568 31321 ft 457 kts 226°
2026-04-25 08:25 23.88026 55.18106 31624 ft 460 kts 226°
2026-04-25 08:25 23.85755 55.15628 31905 ft 463 kts 226°
2026-04-25 08:25 23.83471 55.13139 32198 ft 465 kts 226°
2026-04-25 08:26 23.81177 55.10641 32505 ft 467 kts 226°
2026-04-25 08:26 23.78873 55.08131 32826 ft 469 kts 226°
2026-04-25 08:26 23.76558 55.05609 33093 ft 471 kts 226°
2026-04-25 08:26 23.74231 55.03076 33383 ft 473 kts 227°
2026-04-25 08:27 23.71895 55.00534 33688 ft 475 kts 227°
2026-04-25 08:27 23.69550 54.97985 33967 ft 478 kts 227°
2026-04-25 08:27 23.67191 54.95422 34246 ft 480 kts 227°
2026-04-25 08:27 23.64821 54.92849 34513 ft 482 kts 227°
2026-04-25 08:28 23.62442 54.90266 34804 ft 483 kts 227°
2026-04-25 08:28 23.60061 54.87685 35187 ft 482 kts 227°
2026-04-25 08:28 23.57687 54.85112 35573 ft 481 kts 227°
2026-04-25 08:28 23.55315 54.82541 35954 ft 480 kts 227°
2026-04-25 08:29 23.52946 54.79977 36319 ft 480 kts 228°
2026-04-25 08:29 23.50580 54.77417 36632 ft 479 kts 228°
2026-04-25 08:29 23.48217 54.74861 36991 ft 478 kts 228°
2026-04-25 08:29 23.45867 54.72326 37435 ft 474 kts 229°
2026-04-25 08:30 23.43532 54.69802 37838 ft 472 kts 229°
2026-04-25 08:30 23.41226 54.67307 37939 ft 473 kts 229°
2026-04-25 08:30 23.38899 54.64794 37951 ft 470 kts 229°
2026-04-25 08:31 23.34205 54.59724 37950 ft 473 kts 229°
2026-04-25 08:31 23.29533 54.54690 37945 ft 472 kts 229°
2026-04-25 08:32 23.24895 54.49698 37939 ft 472 kts 229°
2026-04-25 08:32 23.20221 54.44670 37940 ft 473 kts 229°
2026-04-25 08:33 23.15540 54.39645 37949 ft 474 kts 229°
2026-04-25 08:33 23.10847 54.34610 37952 ft 474 kts 229°
2026-04-25 08:34 23.06154 54.29580 37945 ft 474 kts 229°
2026-04-25 08:34 23.01471 54.24564 37944 ft 475 kts 229°
2026-04-25 08:35 22.96769 54.19536 37942 ft 475 kts 229°
2026-04-25 08:35 22.92060 54.14501 37946 ft 475 kts 229°
2026-04-25 08:36 22.87347 54.09469 37943 ft 475 kts 229°
2026-04-25 08:36 22.82638 54.04439 37938 ft 474 kts 231°
2026-04-25 08:37 22.78804 53.98748 37945 ft 465 kts 246°
2026-04-25 08:37 22.76568 53.92261 37960 ft 457 kts 261°
2026-04-25 08:38 22.75285 53.85530 37970 ft 456 kts 261°
2026-04-25 08:38 22.73967 53.78809 37959 ft 456 kts 261°
2026-04-25 08:39 22.72649 53.72096 37952 ft 455 kts 261°
2026-04-25 08:39 22.71340 53.65438 37961 ft 455 kts 261°
2026-04-25 08:40 22.70022 53.58745 37946 ft 454 kts 261°
2026-04-25 08:40 22.68700 53.52055 37951 ft 454 kts 261°
2026-04-25 08:41 22.67379 53.45382 37950 ft 454 kts 261°
2026-04-25 08:41 22.66055 53.38698 37947 ft 454 kts 261°